This demonstration page uses our WeatherBlox Daily Observations layout. Learn more.

Left ArrowRight Arrow

53.62937, 11.41316

Hourly Observations for May 8, 2019

Temp ( °F °C ) Dew Point ( °F °C ) Humidity (%) Winds ( mph kmh ) Pressure ( in mb ) Visibility ( mi km ) Precip ( " mm )
6:50 am 06:50 Mostly Sunny 39 4 34 1 81 81 SE 2 4 29.86 1011 7 11 N/A
7:20 am 07:20 Mostly Sunny 41 5 36 2 81 81 VRB 2 4 29.83 1010 7 11 N/A
7:50 am 07:50 Mostly Sunny 43 6 36 2 76 76 SSE 5 7 29.83 1010 7 11 N/A
8:20 am 08:20 Mostly Sunny 45 7 36 2 71 71 SE 6 9 29.83 1010 7 11 N/A
8:50 am 08:50 Mostly Sunny 46 8 37 3 71 71 VRB 3 6 29.80 1009 7 11 N/A
9:20 am 09:20 Mostly Sunny 50 10 37 3 62 62 SE 7 11 29.80 1009 7 11 N/A
9:50 am 09:50 Mostly Sunny 52 11 37 3 58 58 SSE 9 15 29.80 1009 7 11 N/A
10:20 am 10:20 Mostly Sunny 52 11 37 3 58 58 SSE 9 15 29.77 1008 7 11 N/A
10:50 am 10:50 Mostly Sunny 54 12 36 2 51 51 SSE 8 13 29.77 1008 7 11 N/A
11:20 am 11:20 Mostly Sunny 54 12 36 2 51 51 SSE 9 15 29.74 1007 7 11 N/A
11:50 am 11:50 Mostly Sunny 55 13 36 2 47 47 SE 8 13 29.74 1007 7 11 N/A
12:20 pm 12:20 Mostly Sunny 61 16 36 2 39 39 SE 9 15 29.71 1006 7 11 N/A
12:50 pm 12:50 Mostly Sunny 59 15 32 undefined 36 36 SE 9 15 29.71 1006 7 11 N/A
1:20 pm 13:20 Mostly Sunny 59 15 32 undefined 36 36 SE 12 19 29.68 1005 7 11 N/A
1:50 pm 13:50 Mostly Sunny 59 15 32 undefined 36 36 SE 10 17 29.65 1004 7 11 N/A
2:20 pm 14:20 Mostly Sunny 61 16 36 2 39 39 ESE 9 15 29.65 1004 7 11 N/A
2:50 pm 14:50 Mostly Sunny 59 15 36 2 42 42 SSE 10 17 29.65 1004 30 48 N/A
3:20 pm 15:20 Mostly Sunny 59 15 36 2 42 42 ESE 9 15 29.62 1003 30 48 N/A
3:50 pm 15:50 Mostly Cloudy with Light Rain 55 13 39 4 55 55 SE 12 19 29.62 1003 30 48 N/A
4:20 pm 16:20 Partly Cloudy 55 13 39 4 55 55 SSE 7 11 29.59 1002 30 48 N/A
4:50 pm 16:50 Partly Cloudy 55 13 41 5 59 59 SSE 8 13 29.59 1002 30 48 N/A
5:20 pm 17:20 Partly Cloudy with Drizzle 55 13 41 5 59 59 SSE 5 7 29.59 1002 30 48 N/A
5:50 pm 17:50 Mostly Cloudy with Light Rain 54 12 43 6 67 67 S 6 9 29.56 1001 30 48 N/A
6:20 pm 18:20 Partly Cloudy with Drizzle 54 12 45 7 72 72 SE 10 17 29.56 1001 30 48 N/A
6:50 pm 18:50 Partly Cloudy with Drizzle 54 12 45 7 72 72 SE 13 20 29.53 1000 30 48 N/A
7:20 pm 19:20 Mostly Cloudy with Light Rain 54 12 45 7 72 72 SE 10 17 29.53 1000 30 48 N/A
7:50 pm 19:50 Partly Cloudy with Light Rain 52 11 45 7 77 77 SE 7 11 29.50 999 30 48 N/A
8:20 pm 20:20 Mostly Cloudy with Drizzle 52 11 46 8 82 82 SE 8 13 29.50 999 30 48 N/A
8:50 pm 20:50 Mostly Cloudy 52 11 46 8 82 82 SE 7 11 29.50 999 30 48 N/A

Powered by AerisWeather